Location: Unspecified
(0.0000°N, 0.0000°E)
Time: 23:04:09
(UTC+00:00)

Transit 4A - Visible Passes

Search period start: 25 January 2021 00:00
Search period end: 04 February 2021 00:00
Orbit: 864 x 980 km, 66.8° (Epoch: 25 January)

Date Brightness Start Highest point End Pass type
(mag) Time Alt. Az. Time Alt. Az. Time Alt. Az.
25 Jan 9.2 04:40:38 10° N 04:45:55 34° ENE 04:51:08 10° SE visible
26 Jan 8.2 04:49:22 10° N 04:55:11 61° ENE 05:00:53 10° SSE visible
27 Jan 7.7 04:59:28 15° NNW 05:04:26 78° WSW 05:10:13 10° SSE visible
28 Jan 10.2 03:26:07 12° NE 03:27:34 13° ENE 03:30:19 10° E visible
28 Jan 8.1 05:09:42 18° NW 05:13:40 44° WSW 05:19:09 10° S visible
29 Jan 9.6 03:36:20 24° ENE 03:36:53 24° ENE 03:41:28 10° ESE visible
29 Jan 8.8 05:19:55 17° WNW 05:22:56 25° WSW 05:27:36 10° SSW visible
30 Jan 8.8 03:46:29 42° E 03:46:29 42° E 03:51:36 10° SE visible
30 Jan 9.4 05:30:04 12° W 05:32:13 14° WSW 05:35:08 10° SW visible
31 Jan 8.2 03:56:34 57° SE 03:56:34 57° SE 04:01:12 10° SSE visible
01 Feb 8.5 04:06:35 41° S 04:06:35 41° S 04:10:23 10° S visible
02 Feb 9.2 04:16:30 24° SSW 04:16:30 24° SSW 04:19:10 10° S visible
03 Feb 9.8 04:26:21 14° SSW 04:26:21 14° SSW 04:27:22 10° SSW visible
